Date,TemperatureHighF,TemperatureAvgF,TemperatureLowF,DewpointHighF,DewpointAvgF,DewpointLowF,HumidityHigh,HumidityAvg,HumidityLow,PressureMaxIn,PressureMinIn,WindSpeedMaxMPH,WindSpeedAvgMPH,GustSpeedMaxMPH,PrecipitationSumIn
2013-5-1,32.1,27.9,23.8,31.0,26.0,19.0,96,92,83,25.73,25.27,16,7,22,0.13
2013-5-2,44.4,31.5,17.0,26.0,18.1,11.0,82,61,28,25.79,25.57,10,5,16,0.12
2013-5-3,59.6,43.4,26.9,30.0,23.9,17.0,80,52,21,25.57,25.31,11,4,16,0.00
2013-5-4,56.3,44.3,29.4,28.0,23.1,19.0,84,48,23,25.43,25.35,16,4,22,0.00
2013-5-5,62.5,47.0,29.7,30.0,23.6,18.0,76,44,21,25.45,25.32,13,3,18,0.00
2013-5-6,69.1,54.0,35.9,37.0,28.4,23.0,70,42,20,25.34,25.18,18,5,27,0.00
2013-5-7,71.5,53.5,37.6,45.0,39.7,35.0,92,63,35,25.20,25.14,16,3,24,0.00
2013-5-8,72.1,55.3,42.3,45.0,40.8,37.0,86,62,29,25.31,25.17,16,5,22,0.00
2013-5-9,67.6,54.2,41.9,44.0,38.7,33.0,85,59,29,25.41,25.30,15,4,19,0.00
2013-5-10,71.3,56.7,42.3,46.0,36.8,-99.9,92,54,18,25.50,25.36,20,-6,23,0.00
2013-5-11,66.3,54.2,41.7,42.0,36.4,27.0,79,54,31,25.59,25.41,16,5,19,0.00
2013-5-12,80.8,64.8,45.6,43.0,36.5,31.0,83,42,18,25.41,25.28,19,7,24,0.00
2013-5-13,89.8,71.5,51.1,42.0,37.6,32.0,66,35,14,25.34,25.22,15,5,17,0.00
2013-5-14,91.9,74.4,56.1,42.0,36.8,27.0,59,30,11,25.21,25.13,16,5,22,0.00
2013-5-15,82.6,67.3,53.4,48.0,42.7,38.0,70,44,21,25.22,25.14,11,4,19,0.00
2013-5-16,80.2,64.2,54.5,50.0,45.2,40.0,72,52,25,25.18,25.05,32,4,48,0.05
2013-5-17,86.9,70.6,53.0,58.0,45.8,24.0,82,50,10,25.12,25.00,20,7,27,0.00
2013-5-18,79.8,63.2,53.9,58.0,47.5,38.0,87,60,24,25.14,25.01,13,6,31,0.01
2013-5-19,60.7,54.1,50.2,47.0,41.1,-99.9,84,64,52,25.08,25.02,24,0,30,0.00
2013-5-20,54.4,49.4,46.0,46.0,41.3,38.0,88,74,57,25.18,25.07,36,17,44,0.00
2013-5-21,64.9,53.5,43.3,40.0,35.0,27.0,87,54,25,25.21,25.13,27,14,38,0.00
2013-5-22,69.5,53.0,37.2,44.0,38.1,-99.9,88,62,35,25.34,25.19,14,-6,17,0.00
2013-5-23,62.8,52.7,43.5,50.0,46.3,42.0,97,80,61,25.37,25.26,28,10,45,0.00
2013-5-24,83.2,66.4,54.7,56.0,52.7,47.0,95,66,32,25.27,25.18,24,8,33,0.00
2013-5-25,85.9,70.4,55.5,57.0,50.8,33.0,96,57,16,25.24,25.13,14,4,26,0.00
2013-5-26,83.7,68.3,53.1,55.0,49.7,37.0,85,56,25,25.20,25.10,18,5,22,0.00
2013-5-27,80.6,63.2,47.8,58.0,48.2,35.0,92,62,21,25.10,24.99,20,5,24,0.01
2013-5-28,78.7,58.3,44.5,54.0,45.9,40.0,90,67,33,25.10,24.89,21,6,34,0.81
2013-5-29,63.9,55.9,50.0,52.0,47.1,43.0,95,75,50,25.02,24.86,24,7,29,0.42
2013-5-30,70.5,57.6,45.0,43.0,35.5,21.0,80,49,16,25.07,24.90,28,10,40,0.00
2013-5-31,66.9,54.6,44.0,42.0,34.0,28.0,81,50,24,25.25,25.05,24,14,38,0.00